Regional Weather Roundup
Issued by NWS Austin/San Antonio, TX

Home | Current Version | Previous Version | Text Only | Print | Product List | Glossary On
Versions: 1 2 3 4 5 6 7 8 9 10 11 12 13 14 15 16 17 18 19 20 21 22 23 24 25 26 27 28 29 30 31 32 33 34 35 36 37 38 39 40 41 42 43 44 45 46 47 48 49 50
000
ASUS44 KEWX 200310
RWREWX
SOUTH TEXAS REGIONAL WEATHER ROUNDUP
NATIONAL WEATHER SERVICE AUSTIN/SAN ANTONIO TX
900 PM CST SUN NOV 19 2017

NOTE: "FAIR" INDICATED FEW OR NO CLOUDS BELOW 12,000 FEET WITH NO
SIGNIFICANT WEATHER AND/OR OBSTRUCTIONS TO VISIBILITY.

* - THESE STATIONS ARE NOT NWS OR FAA STATIONS...AND ARE NOT SUBJECT
    TO NWS AND FAA QUALITY CONTROL.

TXZ171-172-183>190-200400-
TEXAS HILL COUNTRY AND EDWARDS PLATEAU

CITY           SKY/WX    TMP DP  RH WIND       PRES   REMARKS
JUNCTION       PTCLDY    41  30  65 W3        30.23S
*LLANO         CLOUDY    39  34  81 CALM      30.27F
BURNET         CLOUDY    45  32  60 CALM      30.26S
*HORSESHOE BAY CLOUDY    42  33  70 CALM      30.25S
*KERRVILLE     PTCLDY    41  32  71 CALM      30.24F
*FREDERICKSBRG CLOUDY    39  31  75 NW3       30.24S
*ROCKSPRINGS   NOT AVBL
*BOERNE STAGE  PTCLDY    39  32  75 CALM      30.26S
*CASTROVILLE   PTCLDY    52  32  46 CALM      30.26S
HONDO          PTCLDY    54  28  36 NE7       30.24S
*UVALDE        PTCLDY    51  36  56 CALM      30.25S
DEL RIO        PTCLDY    52  32  46 SE6       30.21F
LAUGHLIN AFB   MOCLDY    51  34  51 S6        30.21F
CARRIZO SPRGS  CLOUDY    54  41  62 CALM      30.23F
*EAGLE PASS    CLEAR     50  37  62 CALM      30.23S
$$

TXZ173-191>194-202-209-217>225-228-200400-
CENTRAL AND SOUTH CENTRAL TEXAS

CITY           SKY/WX    TMP DP  RH WIND       PRES   REMARKS
GEORGETOWN     PTCLDY    42  31  64 CALM      30.27R
AUSTIN/BERGSTM PTCLDY    40  37  89 CALM      30.25S
AUSTIN/MABRY   PTCLDY    51  33  50 CALM      30.26S
*AUSTIN/EXEC   PTCLDY    50  30  46 CALM      30.25F
*LAGO VISTA    PTCLDY    51  30  44 E3        30.25S
SAN MARCOS     PTCLDY    43  34  70 NW6       30.26R WCI  39
NEW BRAUNFELS  PTCLDY    48  32  53 N3        30.23S
RANDOLPH AFB   PTCLDY    53  31  43 CALM      30.25R
PT SAN ANTONIO PTCLDY    49  35  58 CALM      30.22S
SAN ANTONIO    MOCLDY    54  31  41 CALM      30.26R
STINSON FIELD  CLOUDY    54  33  45 CALM      30.23R
*LA GRANGE     CLEAR     48  40  73 CALM      30.23S
*GIDDINGS      CLEAR     44  39  82 CALM      30.26S
*GONZALES      CLEAR     55  32  41 NE3       30.24S
$$

TXZ163>164-176>182-195>201-210>213-226-227-235-200400-
SOUTHEAST TEXAS

CITY           SKY/WX    TMP DP  RH WIND       PRES   REMARKS
COLLEGE STN    CLEAR     48  35  60 N5        30.25S WCI  46
*BRYAN         CLEAR     50  33  52 N3        30.27R
*CALDWELL      CLEAR     46  37  72 CALM      30.26S
*CROCKETT        N/A    N/A N/A N/A MISG        N/A
*BRENHAM       CLEAR     46  40  79 CALM      30.26S
HUNTSVILLE     CLEAR     46  37  71 CALM      30.25R
CONROE         CLEAR     42  41  96 CALM      30.25S
HOUSTON BUSH   MOCLDY    50  38  63 CALM      30.25S
HOUSTON HOBBY  MOCLDY    55  35  47 NE7       30.24S
*HOUSTON SW AP MOCLDY    49  39  67 CALM      30.25S
PEARLAND       MOCLDY    53  41  63 NE3       30.26R
HOUSTON HOOKS  MOCLDY    47  42  83 CALM      30.25S
ELLINGTON FLD  MOCLDY    57  34  41 N5        30.26S
SUGAR LAND     MOCLDY    52  39  61 NE3       30.24S
*HOUSTON EXEC  MOCLDY    48  41  76 N5        30.26S HAZE    WCI  46
*CLEVELAND MUN MOCLDY    42  40  93 CALM      30.26S
*WHARTON       CLOUDY    51  36  56 CALM      30.25S
*COLUMBUS      FAIR      51  35  54 CALM      30.25F
*EAGLE LAKE    CLEAR     51  38  61 N3        30.24S
$$

TXZ214>216-236>238-200400-
THE UPPER TEXAS COAST

CITY           SKY/WX    TMP DP  RH WIND       PRES   REMARKS
*ORANGE        PTCLDY    46  39  77 CALM      30.26S
PORT ARTHUR    PTCLDY    46  40  79 N3        30.24R
GALVESTON      PTCLDY    59  39  47 NE13      30.25R
ANGLETON       CLOUDY    49  40  71 CALM      30.25R
*BAY CITY      CLOUDY    51  39  63 CALM      30.24R
PALACIOS       CLOUDY    51  38  60 N6        30.24S
$$

TXZ229>234-239>247-200400-
TEXAS COASTAL BEND AND RIO GRANDE PLAINS

CITY           SKY/WX    TMP DP  RH WIND       PRES   REMARKS
VICTORIA       CLOUDY    51  39  63 N6        30.25S
*BEEVILLE      CLOUDY    57  39  50 CALM      30.24S
ROCKPORT       PTCLDY    57  38  48 N3        30.24R
*PORT ARANSAS  NOT AVBL
*PORT LAVACA   CLOUDY    51  37  57 N7        30.25S
*INGLESIDE     NOT AVBL
CORPUS CHRISTI CLOUDY    58  34  40 NE3       30.24R
CORPUS NAS     PTCLDY    63  35  35 NE7       30.24R
*ROBSTOWN      PTCLDY    57  35  43 CALM      30.25R
ALICE          CLOUDY    52  34  50 CALM      30.24R
KINGSVILLE NAS CLOUDY    53  40  61 S5        30.24S
COTULLA        CLOUDY    57  32  38 NE3       30.24S
*FAITH RANCH   PTCLDY    54  46  76 CALM      30.23S
LAREDO         CLOUDY    56  34  43 NE5       30.24S
$$

TXZ248>255-200400-
DEEP SOUTH TEXAS

CITY           SKY/WX    TMP DP  RH WIND       PRES   REMARKS
BROWNSVILLE    MOCLDY    60  47  61 NW9       30.24S
PORT ISABEL    MOCLDY    59  46  62 NW7       30.23S
*SOUTH PADRE   NOT AVBL
HARLINGEN      CLEAR     53  44  71 NW6       30.24S
*HEBBRONVILLE  CLEAR     52  34  49 CALM      30.25R
MCALLEN        CLEAR     60  43  53 E6        30.26R
*WESLACO       CLEAR     55  42  61 E3        30.25S
FALFURRIAS     CLOUDY    53  37  55 CALM      30.25R
EDINBURG       CLEAR     55  42  60 CALM      30.26S
*ZAPATA        CLEAR     54  34  47 CALM      30.24R
$$

TXZ213>215-236>238-242>244-246-247-251-254-255-200400-
CMAN STATIONS

STATION/POSITION TIME  TEMP    WIND        PRES    WAVE
                       AIR SEA DIR/SP/G            HT/PER
                 (UTC) (F)     (DEG/KT/KT) (MB)    (FT/S)
SABINE PASS      0248   56 70   20/  6/  8 1025.5
SEA RIM ST PARK  0300   54     350/  5/  5 1024.7
NORTH JETTY/GLS  0242      67   30/ 14/ 16 1023.5
EAGLE POINT      0248   60 65   30/  6/ 11 1024.2
MORGANS POINT    0248   58 70   20/  6/  7 1024.2
PORT O`CONNOR    0248   62 67   40/ 14/ 16 1023.4
PORT ARANSAS     0300   63 72  360/  7/  8 1023.8
MALAQUITE BEACH  0248   62 71  350/  7/  8 1023.4
BAFFIN BAY       0248   61 68  350/  5/  5 1024.1
PORT ISABEL      0242   66 73   20/  6/ 11 1023.2
$$



USA.gov is the U.S. government's official web portal to all federal, state and local government web resources and services.